Weather History for CWDZ - September, 2013

Change the Weather History Date:

Tuesday, September 10, 2013

  Actual Average Record
Temperature  
Mean Temperature 63 °F -  
Max Temperature 81 °F - - ()
Min Temperature 45 °F - - ()
Degree Days  
Heating Degree Days 2    
Growing Degree Days 13 (Base 50)    
Moisture  
Dew Point 42 °F    
Average Humidity 51    
Maximum Humidity 87    
Minimum Humidity 20    
Precipitation  
Precipitation 0.00 in - - ()
Sea Level Pressure  
Sea Level Pressure 30.01 in    
Wind  
Wind Speed 2 mph ()    
Max Wind Speed 8 mph    
Max Gust Speed -    
T = Trace of Precipitation, MM = Missing Value Source: Averaged Metar Reports

Daily Weather History Graph

Daily Weather History Graph

Search for Another Location

Airport or City:

Trip Planner

Search our weather history database for the weather conditions in past years. The results will help you decide how hot, cold, wet, or windy it might be!

Date:

Astronomy

Sep. 10, 2013 Rise Set
Actual Time 6:58 AM MDT 7:55 PM MDT
Civil Twilight 6:24 AM MDT 8:29 PM MDT
Nautical Twilight 5:43 AM MDT 9:10 PM MDT
Astronomical Twilight 4:59 AM MDT 9:53 PM MDT
Moon 1:09 PM MDT (9/10) 10:19 PM MDT (9/10)
Length of Visible Light 14h 05m
Length of Day
12h 57m
Waxing Crescent, 29% of the Moon is Illuminated
Sep 10
Waxing Crescent
Sep 12
First Quarter
Sep 19
Full
Sep 26
Last Quarter
Oct 4
New

Hourly Weather History & Observations

Time (MDT) Temp. Windchill Dew Point Humidity Pressure Visibility Wind Dir Wind Speed Gust Speed Precip Events Conditions
12:00 AM 56 °F - 46 °F 59% 29.92 in - NNW 1.2 mph - -  
12:00 AM 56.5 °F - 45.5 °F 67% 29.92 in - NNW 1.2 mph - N/A   Unknown
1:00 AM 56.3 °F - 45.5 °F 67% 29.93 in - NW 2.3 mph - N/A   Unknown
2:00 AM 56.8 °F - 45.5 °F 66% 29.94 in - NNW 3.5 mph - N/A   Unknown
3:00 AM 56.1 °F - 45.3 °F 67% 29.96 in - NNW 3.5 mph - N/A   Unknown
4:00 AM 55.8 °F - 45.1 °F 67% 29.98 in - North 3.5 mph - N/A   Unknown
5:00 AM 51.8 °F - 43.3 °F 73% 29.99 in - West 1.2 mph - N/A   Unknown
6:00 AM 48 °F - 44 °F 80% 30.01 in - SE 2.3 mph - -  
6:00 AM 48.4 °F - 43.7 °F 84% 30.01 in - SE 2.3 mph - N/A   Unknown
7:00 AM 45.9 °F 43.6 °F 42.1 °F 87% 30.03 in - SSE 4.6 mph - N/A   Unknown
8:00 AM 47.5 °F - 42.4 °F 83% 30.05 in - SSE 3.5 mph - N/A   Unknown
9:00 AM 52.9 °F - 44.2 °F 72% 30.06 in - NE 1.2 mph - N/A   Unknown
10:00 AM 58.3 °F - 45.5 °F 62% 30.07 in - NE 1.2 mph - N/A   Unknown
11:00 AM 66.0 °F - 45.1 °F 47% 30.06 in - NNW 2.3 mph - N/A   Unknown
12:00 PM 72 °F - 42 °F 23% 30.04 in - NE 2.3 mph - -  
12:00 PM 72.5 °F - 42.3 °F 34% 30.04 in - NE 2.3 mph - N/A   Unknown
1:00 PM 76.1 °F - 35.6 °F 23% 30.03 in - North 2.3 mph - N/A   Unknown
2:00 PM 77.7 °F - 35.2 °F 21% 30.01 in - North 4.6 mph - N/A   Unknown
3:00 PM 81.3 °F - 36.0 °F 20% 29.99 in - SSW 2.3 mph - N/A   Unknown
4:00 PM 81.0 °F - 38.8 °F 22% 29.99 in - NE 3.5 mph - N/A   Unknown
5:00 PM 80.1 °F - 40.3 °F 24% 29.99 in - North 5.8 mph - N/A   Unknown
6:00 PM 80.2 °F - 36.9 °F 21% 29.99 in - NNW 3.5 mph - N/A   Unknown
7:00 PM 76.8 °F - 38.7 °F 25% 30.02 in - North 8.1 mph - N/A   Unknown
8:00 PM 69.8 °F - 40.3 °F 34% 30.04 in - NNE 6.9 mph - N/A   Unknown
9:00 PM 65.1 °F - 40.3 °F 40% 30.09 in - NNE 4.6 mph - N/A   Unknown
10:00 PM 60.4 °F - 39.9 °F 47% 30.10 in - North 3.5 mph - N/A   Unknown
11:00 PM 57.6 °F - 40.6 °F 53% 30.11 in - North 3.5 mph - N/A   Unknown